Weather History for Lancaster, OH

Change the Weather History Date:

Friday, April 5, 2013

  Actual Average Record
Temperature  
Mean Temperature 42 °F -  
Max Temperature 60 °F 56 °F 85 °F (1947)
Min Temperature 25 °F 34 °F 19 °F (1970)
Degree Days  
Heating Degree Days 22    
Moisture  
Dew Point 24 °F    
Average Humidity 53    
Maximum Humidity 85    
Minimum Humidity 25    
Precipitation  
Precipitation 0.00 in - - ()
Sea Level Pressure  
Sea Level Pressure 30.05 in    
Wind  
Wind Speed 3 mph (North)    
Max Wind Speed 17 mph    
Max Gust Speed 21 mph    
Visibility 10 miles    
Events      
Averages and records for this station are not official NWS values.
T = Trace of Precipitation, MM = Missing Value Source: NWS Daily Summary

Daily Weather History Graph

Daily Weather History Graph

Search for Another Location

Airport:

Trip Planner

Search our weather history database for the weather conditions in past years. The results will help you decide how hot, cold, wet, or windy it might be!

Date:

Astronomy

Apr. 05, 2013 Rise Set
Actual Time 7:08 AM EDT 7:59 PM EDT
Civil Twilight 6:40 AM EDT 8:26 PM EDT
Nautical Twilight 6:08 AM EDT 8:59 PM EDT
Astronomical Twilight 5:34 AM EDT 9:32 PM EDT
Moon 4:13 AM EDT (4/5) 3:22 PM EDT (4/5)
Length of Visible Light 13h 45m
Length of Day
12h 50m
Waning Crescent, 24% of the Moon is Illuminated
Apr 5
Waning Crescent
Apr 10
New
Apr 18
First Quarter
Apr 25
Full
May 2
Last Quarter

Hourly Weather History & Observations

Time (EDT) Temp. Windchill Dew Point Humidity Pressure Visibility Wind Dir Wind Speed Gust Speed Precip Events Conditions
12:53 AM 30.9 °F - 24.1 °F 76% 29.99 in 10.0 mi Calm Calm - N/A   Clear
1:53 AM 30.0 °F - 23.0 °F 75% 29.99 in 10.0 mi Calm Calm - N/A   Clear
2:53 AM 28.0 °F - 24.1 °F 85% 29.99 in 10.0 mi Calm Calm - N/A   Clear
3:53 AM 27.0 °F - 21.9 °F 81% 29.98 in 10.0 mi Calm Calm - N/A   Clear
4:53 AM 27.0 °F - 21.9 °F 81% 29.99 in 10.0 mi Calm Calm - N/A   Clear
5:53 AM 26.1 °F - 21.0 °F 81% 30.00 in 10.0 mi Calm Calm - N/A   Clear
6:53 AM 25.0 °F - 19.9 °F 81% 30.01 in 10.0 mi Calm Calm - N/A   Clear
7:53 AM 28.0 °F - 23.0 °F 81% 30.03 in 9.0 mi Calm Calm - N/A   Clear
8:53 AM 37.0 °F - 28.9 °F 73% 30.04 in 9.0 mi Calm Calm - N/A   Clear
9:53 AM 48.0 °F - 28.9 °F 48% 30.05 in 10.0 mi NNE 4.6 mph - N/A   Clear
10:53 AM 51.1 °F - 26.1 °F 38% 30.04 in 10.0 mi Variable 4.6 mph - N/A   Clear
11:53 AM 54.0 °F - 23.0 °F 30% 30.04 in 10.0 mi Calm Calm - N/A   Clear
12:53 PM 57.9 °F - 26.1 °F 30% 30.04 in 10.0 mi North 9.2 mph - N/A   Overcast
1:53 PM 57.9 °F - 27.0 °F 31% 30.03 in 9.0 mi North 13.8 mph 18.4 mph N/A   Scattered Clouds
2:53 PM 60.1 °F - 27.0 °F 28% 30.03 in 10.0 mi NNW 10.4 mph 19.6 mph N/A   Clear
3:53 PM 57.9 °F - 28.9 °F 33% 30.04 in 10.0 mi NNW 17.3 mph - N/A   Clear
4:53 PM 57.9 °F - 26.1 °F 30% 30.03 in 10.0 mi NNW 15.0 mph 20.7 mph N/A   Clear
5:53 PM 55.9 °F - 19.9 °F 25% 30.06 in 10.0 mi North 12.7 mph - N/A   Clear
6:53 PM 53.1 °F - 21.9 °F 30% 30.08 in 10.0 mi North 12.7 mph - N/A   Clear
7:53 PM 48.9 °F - 25.0 °F 39% 30.09 in 10.0 mi North 6.9 mph - N/A   Clear
8:53 PM 44.1 °F 39.5 °F 25.0 °F 47% 30.13 in 10.0 mi NNE 8.1 mph - N/A   Clear
9:53 PM 39.9 °F 37.8 °F 23.0 °F 51% 30.16 in 10.0 mi NE 3.5 mph - N/A   Clear
10:53 PM 39.0 °F 34.8 °F 21.0 °F 49% 30.18 in 10.0 mi NE 5.8 mph - N/A   Clear
11:53 PM 37.0 °F - 19.0 °F 48% 30.18 in 10.0 mi Calm Calm - N/A   Clear